Location: NJAA Observatory
(40.6819°N, 74.8979°W)
Time: 08:21:46
(UTC-04:00)

Transit 2A Rocket - Visible Passes

Search period start: 28 July 2014 00:00
Search period end: 07 August 2014 00:00
Orbit: 596 x 913 km, 66.7° (Epoch: 27 July)

Date Brightness Start Highest point End Pass type
(mag) Time Alt. Az. Time Alt. Az. Time Alt. Az.
28 Jul 6.8 01:32:31 10° NW 01:33:54 18° WNW 01:33:54 18° WNW visible
28 Jul 6.7 23:09:04 10° N 23:12:11 18° NE 23:13:06 17° ENE visible
29 Jul 6.2 00:50:35 10° NW 00:53:02 31° NW 00:53:02 31° NW visible
29 Jul 7.1 22:28:49 10° NNE 22:30:12 11° NE 22:31:36 10° ENE visible
30 Jul 5.5 00:08:54 10° NNW 00:12:13 48° NNW 00:12:13 48° NNW visible
30 Jul 5.5 23:27:26 10° NNW 23:31:26 43° NE 23:31:26 43° NE visible
31 Jul 7.2 01:10:40 10° WNW 01:11:23 13° WNW 01:11:23 13° WNW visible
31 Jul 6.1 22:46:11 10° N 22:50:01 26° NE 22:50:42 25° ENE visible
01 Aug 6.5 00:28:24 10° NW 00:30:38 25° WNW 00:30:38 25° WNW visible
01 Aug 6.8 22:05:14 10° N 22:08:07 16° NE 22:09:59 13° ENE visible
01 Aug 5.5 23:46:31 10° NW 23:49:56 48° NW 23:49:56 48° NW visible
02 Aug 7.1 21:25:41 10° NE 21:26:06 10° NE 21:26:31 10° NE visible
02 Aug 4.8 23:04:54 10° NNW 23:09:16 67° NE 23:09:16 67° NE visible
03 Aug 5.5 22:23:28 10° NNW 22:27:46 39° NE 22:28:39 35° E visible
04 Aug 6.8 00:06:26 10° WNW 00:08:36 20° W 00:08:36 20° W visible
04 Aug 6.2 21:42:15 10° N 21:45:58 24° NE 21:48:03 18° E visible
04 Aug 5.7 23:24:17 10° NW 23:28:01 40° W 23:28:01 40° W visible
05 Aug 6.8 21:01:25 10° N 21:04:02 15° NE 21:06:45 10° E visible
05 Aug 4.7 22:42:28 10° NNW 22:47:06 78° WSW 22:47:28 72° SSW visible
06 Aug 4.9 22:00:53 10° NNW 22:05:27 60° ENE 22:06:58 40° ESE visible
06 Aug 7.1 23:44:53 10° WNW 23:46:56 15° W 23:46:56 15° W visible
